Location: Melita
(38.4566°N, 122.6369°W)
Time: 20:06:47
(UTC+00:00)

Cosmos 1076 Rocket - Pass Details

Date: 24 January 2020
Orbit: 590 x 612 km, 82.5° (Epoch: 16 February)

Event Time Altitude Azimuth Distance (km) Brightness Sun altitude
Rises 14:41:45 0° 355° (N) 2,885 6.8 -8.2°
Reaches altitude 10° 14:44:00 10° 358° (N) 1,976 5.9 -7.8°
Maximum altitude 14:48:22 70° 82° (E) 652 3.9 -7.0°
Drops below altitude 10° 14:52:41 10° 166° (SSE) 1,956 6.6 -6.2°
Sets 14:54:54 0° 169° (S) 2,854 7.4 -5.8°
